Das Wetter in  D-61279 Heinzenberg / Taunus





Wetter Minimum- & Maximum-Werte im Oktober 2011

Standort: Heinzenberg / Taunus - Höhe 297 m         8° 24' 1" Ost 50° 21' 51" Nord
(   3-stündige Aktualisierung    letzte Aktualisierung um 20:46 am 31.10.2011  )


Messgrösse

Minimum

Maximum

Durchschnitt

Temperatur West /
Luftfeuchte West
Anklicken für Monats-Diagramm

-2,6 °C

09:07
23.10.2011

37 %

17:02
01.10.2011

27,1 °C

17:47
01.10.2011

99 %

06:34
09.10.2011

Temp

9,3 °C

Feuchte

85 %

Temperatur Ost /
Luftfeuchte Ost
Anklicken für Monats-Diagramm

-2,0 °C

09:12
23.10.2011

--

--
--

26,4 °C

14:37
01.10.2011

--

--
--

9,7 °C

--

Luftdruck Anklicken für Monats-Diagramm

1004,3 hPa

16:04
25.10.2011

1035,6 hPa

09:53
14.10.2011

1021,1 hPa

Taupunkt

-3,3 °C

09:07
23.10.2011

16,1 °C

12:09
03.10.2011

6,7 °C

Windchill
( gefühlte Temperatur )

-9,2 °C

07:36
22.10.2011

27,0 °C

17:37
01.10.2011

6,9 °C

Windgeschwindigkeit /
Windrichtung
Anklicken für Monats-Diagramm

---

57,5 km/h / W-SW

14:21
06.10.2011

9,1 km/h
W

Helligkeit /
Sonnenschein
Anklicken für Monats-Diagramm
Anklicken für Monats-Diagramm

Sonnenschein:

142:30 Stunden

Max: 10:05 Std am
01.10.2011

93,7 klux

13:57
07.10.2011

21,6 klux

Solarstrahlung Anklicken für Monats-Diagramm

---

641 W/m²

13:57
07.10.2011

162 W/m²

Regenmenge
    Oktober 2011
Anklicken für Monats-Diagramm

Insgesamt 47,7 l/m²

in 43:19 Stunden
an 16 Tagen

26,9 l/m²

13:17
12.10.2011

Gesamtmenge

47,7 l/m²

Regen-Tage
    Oktober 2011
Anklicken für Monats-Diagramm

>   0 mm/Tag

>   2 mm/Tag

>   5 mm/Tag

> 10 mm/Tag

> 20 mm/Tag

16 Tage     
3 Tage     
2 Tage     
  1 Tag     
  1 Tag     

Eisige Tage Oktober 2011 / 2010

Tmin ≤ -10°C     

0 Tage

/

0 Tage

Eistage Oktober 2011 / 2010

Tmax <     0°C     

0 Tage

/

0 Tage

Frosttage Oktober 2011 / 2010

Tmin ≤     0°C     

5 Tage

/

7 Tage

Kalte Tage Oktober 2011 / 2010

Tmax <   10°C     

2 Tage

/

8 Tage

Warme Tage Oktober 2011 / 2010

Tmax ≥   20°C     

4 Tage

/

4 Tage

Sommertage Oktober 2011 / 2010

Tmax ≥   25°C     

2 Tage

/

0 Tage

Heisse Tage Oktober 2011 / 2010

Tmax ≥   30°C     

0 Tage

/

0 Tage


Monatsdiagramm Oktober 2011

Die Kurven zeigen den Durchschnittswert des jeweiligen Tages an


Wetter-Monatsübersicht Oktober 2011
Datum
  Temperatur
   Luftdruck
   Wind
  Regen
   Luftfeuchte
   Helligkeit

Sonnen-
schein

Ø
Temp.

Min.
Temp.

Max.
Temp.

Ø
Luftdruck

Min.
Luftdruck

Max.
Luftdruck

Ø-Geschw.
Haupt-Richtg.

Max.
Wind

Menge /
Dauer

Ø
Feuchte

Min.
Feuchte

Max.
Feuchte

Ø
Helligkeit

Max.
Helligkeit

1.
Oktober
15,8 °C8,4 °C
07:12
27,1 °C
17:47
1026,8 hPa1025,2 hPa
17:47
1028,5 hPa
08:07
2,9 km/h
SO
16,0 km/h
16:57  
---
75 %37 %
17:02
96 %
09:17
35,0 klux59,6 klux
13:02
10:05 Std 
2.
Oktober
16,3 °C9,2 °C
07:53
26,5 °C
16:58
1025,5 hPa1022,2 hPa
16:58
1028,0 hPa
00:58
2,4 km/h
SO
11,4 km/h
17:03  
---
78 %47 %
17:03
96 %
09:08
34,3 klux58,8 klux
12:58
9:55 Std 
3.
Oktober
15,6 °C9,5 °C
07:49
24,7 °C
16:59
1022,9 hPa1020,3 hPa
16:59
1024,8 hPa
00:24
4,0 km/h
SO
18,1 km/h
15:04  
---
79 %44 %
17:34
96 %
08:24
32,0 klux57,5 klux
13:29
9:50 Std 
4.
Oktober
16,0 °C10,0 °C
08:00
23,8 °C
15:55
1021,4 hPa1019,4 hPa
15:55
1023,0 hPa
02:20
11,2 km/h
W-SW
39,2 km/h
15:05  
---
76 %45 %
15:20
94 %
06:30
31,0 klux58,7 klux
12:00
8:05 Std 
5.
Oktober
16,5 °C14,7 °C
11:11
18,7 °C
15:31
1021,1 hPa1019,2 hPa
23:16
1022,5 hPa
11:11
15,7 km/h
W-SW
32,2 km/h
16:16  
0,2 l/m²
40 Minuten
77 %63 %
15:36
92 %
11:01
11,8 klux29,6 klux
15:16
5 Min 
6.
Oktober
13,6 °C8,4 °C
23:47
19,5 °C
13:11
1012,6 hPa1007,7 hPa
15:06
1019,3 hPa
01:41
21,2 km/h
W-SW
57,5 km/h
14:21  
3,8 l/m²
2:10 Stunden
82 %65 %
12:31
96 %
17:51
15,5 klux75,0 klux
13:11
1:20 Std 
7.
Oktober
8,0 °C6,2 °C
09:27
10,5 °C
14:22
1012,3 hPa1009,9 hPa
08:32
1015,1 hPa
21:32
19,9 km/h
W
40,0 km/h
16:22  
2,0 l/m²
5:20 Stunden
90 %84 %
01:37
96 %
20:12
14,5 klux93,7 klux
13:57
1:35 Std 
8.
Oktober
7,0 °C4,3 °C
23:39
10,6 °C
13:08
1015,8 hPa1014,0 hPa
00:38
1018,6 hPa
23:39
14,9 km/h
W-NW
37,2 km/h
03:13  
7,4 l/m²
8:40 Stunden
93 %73 %
12:53
98 %
05:23
19,0 klux78,3 klux
13:08
2:35 Std 
9.
Oktober
7,2 °C2,5 °C
08:34
11,7 °C
14:49
1021,4 hPa1018,6 hPa
01:54
1024,4 hPa
11:24
7,2 km/h
W-SW
27,3 km/h
15:04  
1,4 l/m²
3:19 Stunden
88 %64 %
12:59
99 %
06:34
27,7 klux68,0 klux
11:34
4:40 Std 
10.
Oktober
14,6 °C8,8 °C
00:00
19,9 °C
17:00
1016,9 hPa1015,7 hPa
17:00
1019,1 hPa
00:00
21,2 km/h
W
45,7 km/h
19:20  
0,3 l/m²
50 Minuten
88 %68 %
16:40
99 %
05:40
19,6 klux64,7 klux
13:10
4:09 Std 
11.
Oktober
14,7 °C13,7 °C
05:41
15,4 °C
00:01
1018,4 hPa1017,3 hPa
15:41
1019,5 hPa
07:56
31,2 km/h
W
46,6 km/h
13:36  
---
20 Minuten
83 %79 %
11:31
92 %
05:46
10,9 klux32,0 klux
15:06
--- 
12.
Oktober
12,5 °C8,2 °C
23:57
14,5 °C
12:22
1019,0 hPa1017,4 hPa
04:47
1023,3 hPa
23:57
15,4 km/h
W
38,1 km/h
06:42  
26,9 l/m²
12:10 Stunden
93 %84 %
00:02
99 %
18:22
6,2 klux19,7 klux
11:47
--- 
13.
Oktober
8,4 °C3,4 °C
23:58
13,0 °C
14:52
1028,4 hPa1023,3 hPa
00:02
1033,3 hPa
23:58
2,1 km/h
O-NO
18,0 km/h
13:07  
0,3 l/m²
30 Minuten
88 %60 %
14:17
99 %
02:57
29,3 klux69,1 klux
13:47
7:00 Std 
14.
Oktober
5,0 °C-0,4 °C
07:38
12,2 °C
14:13
1033,9 hPa1032,1 hPa
16:48
1035,6 hPa
09:53
0,7 km/h
O-SO
17,5 km/h
12:58  
---
84 %53 %
16:03
98 %
09:28
30,4 klux54,8 klux
12:53
8:05 Std 
15.
Oktober
4,6 °C-1,1 °C
07:44
13,4 °C
18:04
1031,6 hPa1027,9 hPa
17:54
1034,6 hPa
01:44
0,4 km/h
O-SO
11,2 km/h
17:44  
---
79 %49 %
16:34
97 %
07:59
32,9 klux55,7 klux
12:54
9:25 Std 
16.
Oktober
6,2 °C0,4 °C
05:35
13,6 °C
17:50
1027,1 hPa1024,7 hPa
17:50
1029,4 hPa
00:05
7,8 km/h
O-SO
32,5 km/h
10:30  
---
78 %58 %
16:30
92 %
04:50
32,3 klux54,8 klux
13:00
9:15 Std 
17.
Oktober
6,7 °C1,9 °C
03:11
12,6 °C
16:16
1023,6 hPa1019,6 hPa
23:32
1026,2 hPa
03:11
4,3 km/h
W
38,1 km/h
15:51  
---
88 %72 %
13:21
97 %
09:21
14,0 klux39,2 klux
15:57
21 Min 
18.
Oktober
9,1 °C3,9 °C
00:27
16,2 °C
13:52
1013,6 hPa1008,9 hPa
14:57
1019,7 hPa
00:27
15,8 km/h
SW
50,0 km/h
10:17  
2,0 l/m²
3:15 Stunden
89 %65 %
14:47
97 %
01:52
17,1 klux53,7 klux
13:37
2:10 Std 
19.
Oktober
7,0 °C3,5 °C
23:59
11,4 °C
17:08
1016,5 hPa1014,2 hPa
03:28
1021,8 hPa
23:59
14,6 km/h
SW
53,7 km/h
12:03  
1,4 l/m²
2:35 Stunden
86 %64 %
17:03
96 %
08:18
23,1 klux75,8 klux
14:03
3:50 Std 
20.
Oktober
4,4 °C0,9 °C
23:50
8,2 °C
17:09
1025,7 hPa1021,8 hPa
01:54
1029,4 hPa
23:50
5,3 km/h
W
49,6 km/h
13:34  
1,4 l/m²
1:00 Stunden
90 %78 %
16:09
97 %
09:39
14,6 klux60,7 klux
12:49
1:45 Std 
21.
Oktober
1,6 °C-2,1 °C
08:35
8,4 °C
15:55
1029,7 hPa1028,4 hPa
23:36
1031,7 hPa
10:25
1,3 km/h
SO
11,4 km/h
15:50  
---
94 %85 %
16:00
97 %
05:35
21,7 klux51,9 klux
12:35
5:45 Std 
22.
Oktober
3,0 °C-2,2 °C
03:56
10,0 °C
16:51
1025,6 hPa1022,0 hPa
16:51
1029,7 hPa
00:56
8,6 km/h
O
28,8 km/h
13:16  
---
85 %60 %
16:51
98 %
04:36
28,0 klux51,9 klux
13:16
7:40 Std 
23.
Oktober
3,3 °C-2,6 °C
09:07
11,4 °C
16:52
1020,2 hPa1016,6 hPa
23:58
1023,6 hPa
01:52
6,4 km/h
O
30,4 km/h
15:12  
---
83 %60 %
14:12
97 %
09:47
29,0 klux51,6 klux
13:22
8:50 Std 
24.
Oktober
6,5 °C1,7 °C
02:33
11,6 °C
16:48
1011,8 hPa1007,5 hPa
19:53
1016,8 hPa
01:53
14,9 km/h
O-SO
45,9 km/h
19:03  
---
79 %64 %
21:48
93 %
04:43
21,4 klux65,8 klux
12:48
4:05 Std 
25.
Oktober
8,5 °C6,8 °C
23:55
11,2 °C
16:04
1006,6 hPa1004,3 hPa
16:04
1008,9 hPa
05:39
8,9 km/h
O
44,4 km/h
13:44  
0,3 l/m²
1:00 Stunden
78 %65 %
16:19
94 %
23:15
13,7 klux48,9 klux
11:13
1:50 Std 
26.
Oktober
8,7 °C3,2 °C
23:56
15,1 °C
16:50
1013,7 hPa1006,9 hPa
00:00
1018,8 hPa
23:56
8,0 km/h
SW
30,3 km/h
14:35  
0,2 l/m²
35 Minuten
83 %57 %
16:05
96 %
02:10
24,1 klux67,1 klux
12:05
5:35 Std 
27.
Oktober
6,3 °C1,0 °C
08:11
10,6 °C
15:36
1017,9 hPa1016,8 hPa
15:36
1019,3 hPa
23:52
7,1 km/h
O-SO
32,6 km/h
10:56  
---
92 %86 %
15:01
99 %
09:56
10,0 klux21,9 klux
13:36
--- 
28.
Oktober
8,4 °C2,8 °C
07:22
17,1 °C
16:42
1024,1 hPa1019,4 hPa
00:02
1027,3 hPa
23:48
1,9 km/h
SO
13,5 km/h
15:07  
---
90 %68 %
14:57
99 %
07:37
25,7 klux50,1 klux
12:42
6:20 Std 
29.
Oktober
9,2 °C5,3 °C
05:23
15,6 °C
16:48
1025,9 hPa1023,4 hPa
16:48
1027,8 hPa
05:23
1,6 km/h
O-SO
17,3 km/h
17:43  
---
92 %71 %
16:58
98 %
05:33
12,2 klux45,1 klux
11:58
1:10 Std 
30.
Oktober
10,6 °C7,3 °C
00:04
14,6 °C
14:14
1023,4 hPa1022,5 hPa
14:14
1024,5 hPa
00:04
0,7 km/h
SW
14,4 km/h
12:54  
0,2 l/m²
25 Minuten
96 %91 %
14:19
99 %
08:59
7,7 klux20,6 klux
12:19
--- 
31.
Oktober
11,8 °C7,2 °C
23:26
17,0 °C
16:10
1020,2 hPa1017,3 hPa
17:05
1023,0 hPa
00:05
3,1 km/h
O-SO
20,7 km/h
12:15  
0,2 l/m²
30 Minuten
90 %70 %
15:40
99 %
00:50
24,2 klux46,0 klux
10:30
7:05 Std 



Oktober
2011

Temperatur

  

Luftdruck

  

Wind

  

Regen

  

Luftfeuchte

  

Helligkeit

Sonnen-
schein

Ø

Min

Max

Ø

Min

Max

Ø

Max

Max

Ø

Min

Max

Ø

Max

Max

9,3 °C

-2,6 °C

09:07 Uhr
23.10.2011

27,1 °C

17:47 Uhr
01.10.2011

1021,1 hPa

1004,3 hPa

16:04 Uhr
25.10.2011

1035,6 hPa

09:53 Uhr
14.10.2011

9,1 km/h

W

57,5 km/h

14:21 Uhr
06.10.2011

26,9 l/m²

12:10 Stunden
12.10.2011

85 %

37 %

17:02 Uhr
01.10.2011

99 %

06:34 Uhr
09.10.2011

21,6 klux

93,7 klux

13:57 Uhr
07.10.2011

10:05 Std

am
01.10.2011

Gesamt

Gesamt

47,7 l/m²

16 Tage
43:19 h

142:30 Std


Wetter-Diagramme Oktober 2011     Heinzenberg / Taunus   
TemperaturLuftfeuchte
SolarstrahlungLuftdruck
HelligkeitSonnenschein
RegenmengeRegendauer
Wind-GeschwindigkeitWind-Richtung